This demonstration page uses our WeatherBlox Daily Observations layout. Learn more.

Left ArrowRight Arrow

Hourly Observations for October 2, 2016

Temp ( °F °C ) Dew Point ( °F °C ) Humidity (%) Winds ( mph kmh ) Pressure ( in mb ) Visibility ( mi km ) Precip ( " mm )
12:53 am 00:53 Clear 68 20 60 15.6 76 76 SSE 13 20 29.91 1013 10 16 0.00 0.00
1:53 am 01:53 Clear 66 18.9 59 15 78 78 SE 13 20 29.89 1012 10 16 0.00 0.00
2:53 am 02:53 Clear 64 17.8 59 15 84 84 SE 9 15 29.89 1012 10 16 0.00 0.00
3:53 am 03:53 Clear 63 17.2 58 14.4 84 84 SE 8 13 29.88 1012 10 16 0.00 0.00
4:53 am 04:53 Clear 61 16.1 57 13.9 87 87 SE 7 11 29.87 1012 10 16 0.00 0.00
5:53 am 05:53 Clear 60 15.6 57 13.9 90 90 SE 3 6 29.88 1012 10 16 0.00 0.00
6:53 am 06:53 Clear 60 15.6 57 13.9 90 90 SE 5 7 29.89 1012 10 16 0.00 0.00
7:53 am 07:53 Sunny 59 15 57 13.9 93 93 SE 5 7 29.91 1013 10 16 0.00 0.00
8:53 am 08:53 Sunny 62 16.7 58 14.4 86 86 SE 7 11 29.91 1013 10 16 0.00 0.00
9:53 am 09:53 Sunny 67 19.4 59 15 76 76 SSE 6 9 29.93 1014 10 16 0.00 0.00
10:53 am 10:53 Sunny 74 23.3 58 14.4 57 57 VRB 3 6 29.92 1013 10 16 0.00 0.00
11:53 am 11:53 Sunny 80 26.7 52 11.1 38 38 WSW 7 11 29.90 1013 10 16 0.00 0.00
12:53 pm 12:53 Sunny 82 27.8 51 10.6 34 34 W 5 7 29.90 1013 10 16 0.00 0.00
1:53 pm 13:53 Sunny 86 30 49 9.4 28 28 VRB 7 11 29.88 1012 10 16 0.00 0.00
2:53 pm 14:53 Sunny 89 31.7 46 7.8 23 23 W 7 11 29.84 1011 10 16 0.00 0.00
3:53 pm 15:53 Sunny 90 32.2 43 6.1 19 19 SSW 8 13 29.82 1010 10 16 0.00 0.00
4:53 pm 16:53 Sunny 91 32.8 45 7.2 20 20 WNW 5 7 29.81 1009 10 16 0.00 0.00
5:53 pm 17:53 Partly Cloudy 90 32.2 44 6.7 20 20 WSW 7 11 29.80 1009 10 16 0.00 0.00
6:53 pm 18:53 Sunny 89 31.7 42 5.6 19 19 SW 6 9 29.80 1009 10 16 0.00 0.00
7:53 pm 19:53 Clear 78 25.6 46 7.8 32 32 S 7 11 29.82 1010 10 16 0.00 0.00
8:53 pm 20:53 Clear 79 26.1 57 13.9 47 47 SSE 10 17 29.83 1010 10 16 0.00 0.00
9:53 pm 21:53 Clear 77 25 60 15.6 56 56 SSE 16 26 29.85 1011 10 16 0.00 0.00
10:53 pm 22:53 Clear 74 23.3 60 15.6 62 62 SE 15 24 29.85 1011 10 16 0.00 0.00
11:53 pm 23:53 Clear 71 21.7 61 16.1 71 71 SE 13 20 29.84 1011 10 16 0.00 0.00

Powered by AerisWeather